Location: Doschendorf
(50.0069°N, 11.0602°E)
Time: 16:48:01
(UTC+00:00)

Cosmos 1680 Rocket - Pass Details

Date: 17 November 2019
Orbit: 759 x 782 km, 74.1° (Epoch: 12 December)

Event Time Altitude Azimuth Distance (km) Brightness Sun altitude
Rises 17:30:46 0° 197° (SSW) 3,209 7.1 -19.2°
Reaches altitude 10° 17:33:07 10° 197° (SSW) 2,290 6.2 -19.6°
Maximum altitude 17:38:19 79° 111° (ESE) 786 3.4 -20.4°
Enters shadow 17:41:26 25° 28° (NNE) 1,520 4.7 -20.9°
